OBJECT X (43779 NORAD) Tracking and Keplerian Element Data

This shows tracking and keplerian element data for the satellite.

Feedback or suggestion? Click here.




ElementValue
Catalog43779
NameOBJECT X
Epoch Orbit1394
Epoch Day66.19620228
Epoch Year2019
RAAN139.3855
Inclination97.756
Eccentricity0.0013563
Argument of Perigee314.2962
Mean Anonmoly45.7145
Mean Motion14.94871057
Decay Rate1.49E-06
L11 43779U 18099X 19066.19620228 .00000149 00000-0 19017-4 0 9995
L22 43779 97.7560 139.3855 0013563 314.2962 45.7145 14.94871057 13944

Live tracking and technical data element details for OBJECT X (NORAD 43779). OBJECT X can be tracked NOW for your location showing map with azimuth and elevation plus other details from your city location.

Track the satellite on the map from your city or location and see movement details for azimuth, elevation, latitude, longitude, range, height, and movement on the map or in text.







IsCatalogInMostPopularTable: catalog: 43779, numindb: 91
Update: records affected: 1



GetName: 43779 OBJECT X

Hit Count: updated at: Mon, 22 Jul 2019 04:29:58 GMT